EHI
4 3 1 0 0 0 0 0 0 1 2 2 4 7 9 8 6 6 5 2 0 0 0 0 0 0 0 0 0 0 0 0 0 0 0 0 0 0
4 3 2 1 0 0 0 0 1 1 1 1 3 5 5 4 4 5 5 2 0 0 0 0 0 0 0 0 0 0 0 0 0 0 0 0 0 0
4 4 3 1 0 0 0 0 1 1 1 1 3 3 1 0 2 4 4 2 1 0 0 0 0 0 0 0 0 0 0 0 0 0 0 0 0 0
4 4 3 1 0 0 0 0 1 1 1 2 2 2 1 0 1 3 4 2 1 0 0 0 0 0 0 0 0 0 0 0 0 0 0 0 0 0
4 3 2 0 0 0 0 0 0 0 1 2 1 1 1 0 0 2 2 1 0 0 0 0 0 0 0 0 0 0 0 0 0 0 0 0 0 0
2 2 1 0 0 0 0 0 0 0 1 1 1 0 1 0 0 0 0 0 0 0 0 0 0 0 0 0 0 0 0 0 0 0 0 0 0 0
1 1 0 0 0 0 0 0 0 0 0 0 0 0 0 0 0 0 0 0 0 0 0 0 0 0 0 0 0 0 0 0 0 0 0 0 0 0
0 0 0 0 0 0 0 0 0 0 0 0 0 0 0 0 0 0 0 0 0 0 0 0 0 0 0 0 0 0 0 0 0 0 0 0 0 0
0 0 0 0 0 0 0 0 0 0 0 0 0 0 0 0 0 0 0 0 0 0 0 0 0 0 0 0 0 0 0 0 0 0 0 0 0 0
0 0 0 0 0 0 0 0 0 0 0 0 0 0 0 0 0 0 0 0 0 0 0 0 0 0 0 0 0 0 0 0 0 0 0 0 0 0
0 0 0 0 0 0 0 0 0 0 0 0 0 0 0 0 0 0 0 0 0 0 0 0 0 0 0 0 0 0 0 0 0 0 0 0 0 0
0 0 0 0 0 0 0 0 0 0 0 0 0 0 0 0 0 0 0 0 0 0 0 0 0 0 0 0 0 0 0 0 0 0 0 0 0 0
0 0 0 0 0 0 0 0 0 0 0 0 0 0 0 0 0 0 0 0 0 0 0 0 0 0 0 0 0 0 0 0 0 0 0 0 0 0
0 0 0 0 0 0 0 0 0 0 0 0 0 0 0 0 0 0 0 0 0 0 0 0 0 0 0 0 0 0 0 0 0 0 0 0 0 0
0 0 0 0 0 0 0 0 0 0 0 0 0 0 0 0 0 0 0 0 0 0 0 0 0 0 0 0 0 0 0 0 0 0 0 0 0 0
0 0 0 0 0 0 0 0 0 0 0 0 0 0 0 0 0 0 0 0 0 0 0 0 0 0 0 0 0 0 0 0 0 0 0 0 0 0
0 0 0 0 0 0 0 0 0 0 0 0 0 0 0 0 0 0 0 0 0 0 0 0 0 0 0 0 0 0 0 0 0 0 0 0 0 0
0 0 0 0 0 0 0 0 0 0 0 0 0 0 0 0 0 0 0 0 0 0 0 0 0 0 0 0 0 0 0 0 0 0 0 0 0 0
0 0 0 0 0 0 0 0 0 0 0 0 0 0 0 0 0 0 0 0 0 0 0 0 0 0 0 0 0 0 0 0 0 0 0 0 0 0
0 0 0 0 0 0 0 0 0 0 0 0 0 0 0 0 0 0 0 0 0 0 0 0 0 0 0 0 0 0 0 0 0 0 0 0 0 0
0 0 0 0 0 0 0 0 0 0 0 0 0 0 0 0 0 0 0 0 0 0 0 0 0 0 0 0 0 0 0 0 0 0 0 0 0 0
0 0 0 0 0 0 0 0 0 0 0 0 0 0 0 0 0 0 0 0 0 0 0 0 0 0 0 0 0 0 0 0 0 0 0 0 0 0
0 0 0 0 0 0 0 0 0 0 0 0 0 0 0 0 0 0 0 0 0 0 0 0 0 0 0 0 0 0 0 0 0 0 0 0 0 0
Wind_Speed
6 6 5 5 5 5 5 5 6 6 5 3 1 1 1 1 3 4 5 7 8 9 9 10 9 8 9 8 8 8 7 6 6 6 6 6 7 7
5 6 6 5 5 5 5 5 5 6 5 2 1 1 1 2 3 4 6 10 9 10 10 10 10 11 11 11 11 10 9 8 8 7 7 6 6 6
6 6 6 6 5 5 5 5 5 4 5 3 2 1 1 3 4 5 6 6 6 10 11 11 11 12 11 11 12 11 11 10 10 9 9 8 7 6
6 6 6 6 6 5 5 5 5 4 4 4 2 1 2 4 5 6 7 7 7 11 12 12 12 12 13 12 12 12 11 11 10 10 9 9 8 7
6 6 6 6 6 5 5 5 4 4 3 4 2 1 2 3 5 6 8 6 8 9 12 12 13 13 13 13 12 12 11 11 10 10 9 8 8 7
5 5 5 5 5 5 4 4 4 3 3 4 4 3 3 4 5 6 6 5 6 7 8 9 12 13 13 13 12 11 11 10 9 9 8 7 6 5
4 3 4 3 3 4 4 3 3 3 4 5 5 4 4 5 5 4 7 6 5 5 6 6 6 6 7 9 10 11 10 9 8 7 6 5 4 3
3 2 2 1 1 0 1 2 3 5 5 5 5 6 6 6 5 6 7 7 4 3 5 5 5 6 5 5 8 10 10 9 8 7 5 4 3 1
3 2 2 1 1 2 4 4 3 3 4 5 7 6 7 7 7 7 6 6 5 5 5 5 5 6 5 6 10 10 9 8 7 6 4 3 1 1
3 2 1 1 1 3 4 5 5 4 3 4 6 6 6 6 6 7 8 7 5 3 4 5 5 5 6 5 8 9 9 8 7 5 3 1 0 2
3 3 3 3 3 4 5 6 7 6 9 11 11 10 11 10 7 6 7 7 6 3 3 4 5 5 4 4 5 8 8 7 6 4 2 1 2 2
3 4 5 5 5 4 5 7 7 6 8 9 9 9 9 8 8 5 5 6 6 4 2 3 5 4 4 3 4 4 4 5 5 4 2 0 2 1
4 4 4 7 7 5 6 6 8 7 7 8 7 7 6 5 5 5 4 4 5 4 3 2 3 3 3 4 3 4 5 4 4 3 4 2 0 1
3 4 6 9 8 7 6 8 10 8 5 5 6 6 6 6 5 5 6 6 6 6 3 3 2 2 3 4 3 3 3 3 3 2 2 3 2 2
2 7 10 11 9 7 8 9 7 5 5 5 6 6 6 6 6 5 6 6 6 6 5 4 3 3 3 3 3 3 2 2 3 2 2 1 1 1
4 9 11 9 6 7 7 5 3 3 5 6 6 7 6 5 5 5 4 4 5 4 4 5 5 4 4 4 4 3 3 2 2 2 1 0 1 2
6 6 6 5 5 6 5 5 4 4 5 5 6 7 6 5 5 4 4 4 5 5 4 3 3 4 5 3 3 3 3 2 2 1 0 1 1 2
6 6 6 6 6 6 6 5 5 5 5 5 6 5 5 5 5 4 4 5 5 5 4 3 3 3 3 4 4 2 2 2 1 1 1 1 1 1
5 5 6 6 5 6 5 5 5 5 5 5 5 5 5 5 4 4 4 4 5 4 4 3 2 2 3 3 1 3 2 1 1 2 2 1 0 0
4 5 5 5 5 5 6 6 6 5 5 5 5 5 5 4 4 4 4 5 5 4 4 3 2 2 2 3 2 1 1 1 1 1 2 2 1 0
6 5 5 5 5 5 6 6 6 5 5 5 4 5 4 4 4 4 5 5 4 3 4 4 2 2 2 1 2 2 2 3 2 2 1 1 1 1
6 6 5 5 5 5 6 5 6 6 6 5 4 4 4 4 5 6 5 4 3 4 5 4 3 2 1 1 2 3 3 3 3 3 3 3 1 1
7 6 6 6 5 5 5 6 7 6 5 5 5 4 4 4 4 4 4 4 5 5 5 4 3 2 2 1 1 2 2 2 3 3 3 8 9 8
Wind_Direction
268 269 266 267 266 266 266 263 264 275 273 273 274 278 125 121 164 154 145 146 150 150 146 141 137 137 137 138 139 141 147 150 154 160 168 180 194 207
256 263 268 271 270 267 265 262 251 256 268 282 284 279 149 152 129 117 120 124 127 133 131 128 125 122 121 121 120 121 123 125 129 132 131 130 131 132
267 267 267 270 269 269 265 261 254 248 253 269 284 252 154 126 113 109 113 112 109 114 117 117 116 114 112 112 112 112 110 108 109 111 112 112 112 113
264 270 274 276 269 265 262 258 252 240 229 229 249 227 159 135 124 118 115 110 107 106 108 109 110 112 111 109 107 106 105 105 105 102 100 100 101 99
266 268 274 277 275 270 262 254 245 234 206 191 196 186 135 130 119 113 106 105 107 107 102 102 105 107 107 107 106 106 106 105 103 101 99 96 93 91
262 269 275 275 274 274 266 251 229 206 187 173 165 158 141 131 123 125 116 108 110 111 99 101 102 100 102 105 107 107 106 106 105 105 105 103 100 97
262 269 278 287 285 275 260 238 209 194 180 167 162 156 150 144 135 134 127 117 101 111 115 117 113 106 102 104 106 110 111 112 114 113 110 108 109 116
252 262 259 252 290 269 179 186 201 190 181 171 164 162 157 145 135 141 136 132 122 137 125 127 128 119 117 106 118 118 117 118 116 114 112 112 115 126
233 245 253 184 147 128 107 99 96 126 165 169 157 158 151 148 141 140 136 130 126 150 135 124 121 109 108 120 130 126 125 126 128 128 126 127 135 205
211 211 214 159 142 134 126 104 90 78 111 132 128 125 125 130 135 133 128 115 107 111 116 117 121 118 117 124 146 145 147 147 144 141 140 139 266 280
186 162 152 130 109 124 126 115 102 88 78 91 101 103 105 107 121 127 132 130 127 119 112 116 130 125 125 137 164 171 167 165 162 163 157 50 342 333
166 137 122 121 116 117 125 120 117 116 114 109 103 101 105 101 98 110 126 130 131 125 122 115 139 134 131 146 159 173 187 195 194 197 197 331 359 11
172 152 134 128 123 116 115 116 120 121 117 116 112 109 106 100 88 75 76 118 125 112 123 112 137 138 130 144 158 173 177 170 178 197 210 215 42 76
177 153 141 140 135 132 122 124 124 121 117 116 115 114 109 100 92 89 84 85 95 101 89 84 110 115 120 128 130 135 137 139 139 148 155 162 148 126
160 140 139 139 133 130 133 135 134 129 124 120 115 109 107 109 108 100 94 90 88 86 78 66 76 83 97 108 108 113 108 91 89 84 85 123 159 148
132 130 131 136 135 133 143 152 159 147 136 127 122 118 117 120 123 127 122 118 104 88 72 66 65 74 86 91 93 91 86 89 83 79 53 15 120 95
140 136 138 147 153 152 161 171 168 149 133 124 123 129 138 143 145 147 140 133 126 124 115 93 83 82 76 70 92 89 84 78 77 60 357 12 83 96
150 148 151 163 164 158 160 156 150 142 139 136 136 143 145 143 139 141 142 137 134 133 134 134 126 117 100 53 32 64 76 70 44 1 10 50 47 90
167 164 165 172 172 161 158 153 143 136 135 135 136 137 133 134 140 143 139 132 127 126 126 127 130 139 144 132 8 359 75 68 27 15 4 5 357 140
199 181 175 178 179 160 157 146 138 136 133 133 134 135 137 140 141 138 131 128 128 130 125 110 93 84 106 121 136 191 212 121 91 27 341 334 345 54
200 190 177 178 176 153 142 139 141 141 140 137 136 139 142 143 142 135 124 126 130 132 123 117 131 135 111 115 142 152 174 197 184 181 259 310 318 318
195 186 172 165 155 141 140 143 142 137 142 143 142 146 147 144 136 133 141 150 147 130 124 135 170 184 189 183 154 151 161 183 218 235 237 224 211 244
190 177 160 149 147 145 144 148 146 145 150 151 148 152 150 141 141 148 154 147 136 139 144 152 172 193 180 168 149 149 174 189 182 194 231 228 231 239